Home > Time Zones > World Clock > Weather > Mali > Bamako > Past weeks

Flag for Mali Weather past 2 weeks in Bamako, Mali

Now
68 °F

Clear.


Feels Like: 68 °F
Forecast: 62 / 91 °F
Wind: 13 mph from Northeast

Location: Bamako / Senou

Current Time: Jan 26, 2015 at 6:34:58 AM

Latest Report: Jan 26, 2015 at 6:00 AM


Visibility: 10 mi

Pressure: 29.98 "Hg

Humidity: 17%

Dew point: 21 °F

Location of BamakoLocation

Historic Weather in Bamako — Graph

°F

Bamako temperature yesterday

Maximum temperature yesterday: 93 °F (at 3:30 PM)
Minimum temperature yesterday: 59 °F (at 5:00 AM)
Average temperature yesterday: 77 °F

Past Weeks' High & Low Weather Summary

 TemperatureHumidityPressure
High95 °F (Jan 19, 4:30 PM)56% (Jan 19, 3:30 AM)30.15 "Hg (Jan 19, 3:30 AM)
Low54 °F (Jan 14, 6:30 AM)8% (Jan 14, 3:30 PM)29.83 "Hg (Jan 20, 4:00 PM)
Average76 °F22%29.99 "Hg
* Reported Jan 11 5:00 AM — Jan 26 5:30 AM, Bamako, Weather by CustomWeather, © 2014

Note: Actual official high and low records may vary slightly from our data, if they occured in-between our weather recording intervals... More about our weather records

Advertising

Bamako weather history for previous 24 hours

 ConditionsComfort  
Time TempWeatherWind HumidityBarometerVisibility
5:30 AM
Jan 26
68 °FClear.12 mph17%29.98 "Hg10 mi
5:00 AM70 °FPassing clouds.13 mph16%29.98 "HgN/A
4:30 AM70 °FClear.10 mph16%29.95 "Hg10 mi
3:30 AM72 °FClear.13 mph15%29.95 "Hg10 mi
2:30 AM73 °FClear.15 mph13%29.98 "Hg10 mi
2:00 AM73 °FClear.13 mph14%29.98 "Hg10 mi
1:30 AM75 °FClear.10 mph13%29.98 "Hg10 mi
1:00 AM73 °FPassing clouds.9 mph14%29.98 "HgN/A
12:30 AM73 °FClear.9 mph15%29.98 "Hg10 mi
12:00 AM72 °FClear.12 mph17%29.98 "Hg10 mi
11:30 PM
Jan 25
73 °FClear.13 mph17%29.98 "Hg10 mi
11:00 PM72 °FClear.10 mph20%29.98 "Hg10 mi
10:30 PM72 °FClear.9 mph20%29.98 "Hg10 mi
10:00 PM72 °FClear.9 mph22%29.95 "Hg10 mi
9:30 PM73 °FClear.8 mph16%29.95 "Hg10 mi
9:00 PM73 °FClear.8 mph17%29.95 "Hg10 mi
8:30 PM75 °FClear.6 mph15%29.92 "Hg10 mi
8:00 PM77 °FClear.7 mph14%29.92 "Hg10 mi
7:30 PM79 °FClear.5 mph12%29.89 "Hg10 mi
7:00 PM82 °FPassing clouds.6 mph12%29.89 "HgN/A
6:30 PM86 °FClear.7 mph10%29.86 "Hg10 mi
6:00 PM90 °FSunny.8 mph9%29.86 "Hg10 mi
5:30 PM91 °FSunny.8 mph9%29.86 "Hg10 mi
5:00 PM91 °FSunny.9 mph9%29.86 "Hg10 mi
4:30 PM93 °FPassing clouds.8 mph8%29.86 "HgN/A
4:00 PM93 °FPassing clouds.9 mph10%29.86 "HgN/A
3:30 PM93 °FPassing clouds.7 mph9%29.86 "HgN/A
3:00 PM91 °FPassing clouds.9 mph9%29.86 "HgN/A
2:30 PM91 °FPassing clouds.8 mph10%29.89 "HgN/A
2:00 PM91 °FPassing clouds.8 mph9%29.89 "HgN/A
1:30 PM90 °FPassing clouds.9 mph9%29.92 "HgN/A
1:00 PM90 °FPassing clouds.8 mph9%29.92 "HgN/A
12:30 PM88 °FSunny.13 mph9%29.92 "Hg10 mi
12:00 PM86 °FPassing clouds.13 mph9%29.95 "HgN/A
11:30 AM86 °FPassing clouds.14 mph9%29.95 "HgN/A
11:00 AM84 °FSunny.14 mph9%29.98 "Hg10 mi
10:30 AM82 °FClear.14 mph11%29.98 "Hg5 mi
10:00 AM81 °FClear.13 mph14%29.98 "Hg5 mi
9:30 AM81 °FClear.12 mph15%29.98 "Hg5 mi
9:00 AM77 °FClear.7 mph17%29.98 "Hg5 mi
8:30 AM70 °FClear.6 mph27%29.95 "Hg5 mi
8:00 AM66 °FClear.6 mph32%29.95 "Hg5 mi
7:30 AM61 °FClear.6 mph45%29.95 "Hg5 mi
7:00 AM63 °FSunny.3 mph37%29.95 "Hg10 mi
6:30 AM59 °FClear.5 mph51%29.92 "Hg10 mi
6:00 AM59 °FClear.3 mph51%29.95 "Hg10 mi
Weather by CustomWeather, © 2014

See weather overviewHow to use our weather pages